Location: Colebrook
(42.0017°N, 73.0973°W)
Time: 06:59:36
(UTC-04:00)

Amateur Radio Satellites - All Passes

Search period start: 25 April 2015 06:29
Search period end: 26 April 2015 06:29
Location: Colebrook, 42.0017°N, 73.0973°W

Satellite Date Start Highest point End Downlink Frequencies (MHz)
Time Altitude Azimuth
JAS-2 25 Apr 06:33:00 06:37:54 23° 300° (WNW) 06:42:16 435.910
M-CUBED/EXP-1 PRIME 25 Apr 06:43:36 06:48:02 36° 259° (W) 06:52:29 437.505
DANDE 25 Apr 06:45:26 06:49:57 16° 275° (W) 06:54:15 436.750
STRAND 1 25 Apr 06:46:58 06:52:02 67° 73° (ENE) 06:57:07 437.568
Cosmos 2499 25 Apr 06:56:26 07:03:52 48° 270° (W) 07:10:44 435.465 / 435.565
CUBESAT XI-V 25 Apr 06:57:49 07:02:18 47° 261° (W) 07:06:46 437.345
AUBIESAT-1 25 Apr 07:28:35 07:31:30 15° 266° (W) 07:34:13 437.475
PRISM 25 Apr 07:48:51 07:51:54 19° 267° (W) 07:54:49 437.425
CUTE-I 25 Apr 07:54:37 07:59:45 50° 289° (WNW) 08:04:51 437.470
AO-7 25 Apr 07:59:50 08:03:30 13° 315° (NW) 08:06:45 29.400- 29.500
GOMX 1 25 Apr 08:02:53 08:04:42 12° 87° (E) 08:06:52 467.674
PCSat 25 Apr 08:03:15 08:08:02 33° 111° (ESE) 08:12:53 145.827
Cubesat XI-IV 25 Apr 08:04:10 08:09:09 41° 291° (WNW) 08:14:05 437.490
BRITE-PL 25 Apr 08:10:25 08:14:19 22° 92° (E) 08:18:32 437.365/2234.400
O/OREOS (USA 219) 25 Apr 08:24:44 08:29:14 72° 66° (ENE) 08:33:42 437.305
STRAND 1 25 Apr 08:28:51 08:31:48 15° 271° (W) 08:34:30 437.568
HO-68 25 Apr 08:30:26 08:35:42 22° 90° (E) 08:41:13 435.675
DOVE 4 25 Apr 08:40:58 08:44:35 20° 91° (E) 08:48:27 437.250
COMPASS 1 25 Apr 08:51:17 08:53:26 14° 89° (E) 08:55:46 437.405
SEEDS 25 Apr 09:14:37 09:18:25 31° 96° (E) 09:22:13 437.485
Cosmos 2491 25 Apr 09:20:18 09:28:23 39° 70° (ENE) 09:36:35 435.465 / 435.565
CANX-2 25 Apr 09:21:49 09:26:01 51° 99° (E) 09:30:10 2200.000
CINEMA 3 25 Apr 09:29:10 09:33:28 29° 94° (E) 09:37:53 145.822/145.860
TIGRISAT 25 Apr 09:29:44 09:32:33 17° 64° (ENE) 09:35:33 435.000
CUTE 1.7 + AOD 2 25 Apr 09:31:00 09:35:15 59° 100° (E) 09:39:28 437.475
AAUSAT CUBESAT 2 25 Apr 09:33:05 09:36:56 35° 96° (E) 09:40:47 437.432
CUBEBUG 2 25 Apr 09:33:10 09:36:07 17° 89° (E) 09:39:15 437.445
UNISAT 6 25 Apr 09:33:27 09:36:33 19° 65° (ENE) 09:39:51 437.425
GOMX 1 25 Apr 09:38:19 09:43:27 85° 284° (WNW) 09:48:51 467.674
POPSAT HIP 1 25 Apr 09:43:23 09:43:50 10° 62° (ENE) 09:44:31 437.405
PCSat 25 Apr 09:46:23 09:51:24 37° 309° (NW) 09:56:26 145.827
BRITE-PL 25 Apr 09:48:10 09:53:02 47° 287° (WNW) 09:58:11 437.365/2234.400
UWE-3 25 Apr 09:59:50 10:03:40 25° 93° (E) 10:07:34 435.000/436.395/437.385
O/OREOS (USA 219) 25 Apr 10:07:01 10:08:06 11° 261° (W) 10:08:54 437.305
BUGSAT 1 25 Apr 10:09:29 10:11:18 13° 65° (ENE) 10:13:18 437.445
POLYITAN 1 25 Apr 10:09:59 10:13:06 21° 67° (ENE) 10:16:18 437.675
FUNcube-1 25 Apr 10:10:53 10:14:39 25° 93° (E) 10:18:29 145.935
DUCHIFAT 1 25 Apr 10:11:42 10:14:47 20° 67° (ENE) 10:17:57 145.980
ANTELSAT 25 Apr 10:14:01 10:18:22 47° 72° (ENE) 10:22:50 437.575/2403.000
HO-68 25 Apr 10:16:58 10:24:08 70° 290° (WNW) 10:31:13 435.675
DOVE 4 25 Apr 10:17:40 10:22:38 53° 287° (WNW) 10:27:45 437.250
UKube-1 25 Apr 10:18:04 10:20:38 16° 91° (E) 10:23:22 .
COMPASS 1 25 Apr 10:25:24 10:29:29 49° 287° (WNW) 10:33:31 437.405
YUBILEINY 25 Apr 10:26:36 10:34:36 42° 88° (E) 10:42:45 435.215
QB50P1 25 Apr 10:28:08 10:31:50 31° 70° (ENE) 10:35:35 145.935-145.965
ZACube-1 25 Apr 10:35:36 10:40:03 46° 98° (E) 10:44:29 437.345
HUMSAT D 25 Apr 10:35:38 10:38:58 22° 92° (E) 10:42:22 437.325/437.525
Oscar 11 25 Apr 10:36:16 10:40:38 85° 103° (ESE) 10:44:58 145.826/435.025
VELOX 1 25 Apr 10:39:42 10:41:48 14° 89° (E) 10:44:08 145.980
DELFI C3 25 Apr 10:46:59 10:51:04 86° 99° (E) 10:55:05 145.870
SEEDS 25 Apr 10:50:43 10:54:04 23° 292° (WNW) 10:57:20 437.485
QB50P2 25 Apr 10:53:31 10:57:40 61° 74° (ENE) 11:01:52 145.880/145.840
AISAT 25 Apr 10:56:22 10:59:44 21° 93° (E) 11:03:14 437.250
SO-50 25 Apr 10:56:40 10:59:41 18° 111° (ESE) 11:02:56 436.795
CANX-2 25 Apr 10:59:01 11:01:34 15° 295° (WNW) 11:03:57 2200.000
TIGRISAT 25 Apr 11:04:29 11:08:53 53° 261° (W) 11:13:26 435.000
CINEMA 3 25 Apr 11:06:12 11:10:40 34° 290° (WNW) 11:15:08 145.822/145.860
CUBEBUG 2 25 Apr 11:08:31 11:13:11 54° 286° (WNW) 11:17:49 437.445
CUTE 1.7 + AOD 2 25 Apr 11:08:33 11:10:44 13° 296° (WNW) 11:12:43 437.475
UNISAT 6 25 Apr 11:08:39 11:13:01 46° 262° (W) 11:17:29 437.425
DX 1 25 Apr 11:08:59 11:13:19 61° 101° (E) 11:17:38 434.975-435.025
AAUSAT CUBESAT 2 25 Apr 11:09:14 11:12:21 20° 293° (WNW) 11:15:22 437.432
NANOSAT C BR1 25 Apr 11:11:58 11:16:10 85° 254° (WSW) 11:20:25 145.865
POPSAT HIP 1 25 Apr 11:14:56 11:19:09 79° 257° (WSW) 11:23:24 437.405
Cosmos 2491 25 Apr 11:17:06 11:25:28 48° 271° (W) 11:33:42 435.465 / 435.565
GOMX 1 25 Apr 11:19:00 11:20:58 12° 298° (WNW) 11:22:42 467.674
AIST 1 25 Apr 11:25:08 11:28:48 28° 74° (ENE) 11:32:31
ESTCUBE 1 25 Apr 11:33:16 11:37:07 28° 95° (E) 11:41:02 437.505/2401.250
BEESAT 3 25 Apr 11:34:19 11:38:21 52° 53° (NE) 11:42:18 437.485
BEESAT 2 25 Apr 11:35:08 11:39:06 44° 52° (NE) 11:43:02 435.950
50 SAT 25 Apr 11:35:30 11:39:31 61° 100° (E) 11:43:30 437.505
UWE-3 25 Apr 11:36:00 11:40:16 34° 290° (WNW) 11:44:28 435.000/436.395/437.385
BUGSAT 1 25 Apr 11:42:28 11:46:24 53° 260° (W) 11:50:21 437.445
POLYITAN 1 25 Apr 11:44:55 11:48:49 35° 263° (W) 11:52:43 437.675
DUCHIFAT 1 25 Apr 11:46:33 11:50:24 35° 263° (W) 11:54:16 145.980
FUNcube-1 25 Apr 11:46:54 11:51:03 33° 290° (WNW) 11:55:06 145.935
ISS 25 Apr 11:49:34 11:52:23 27° 136° (SE) 11:55:14 145.825
ANTELSAT 25 Apr 11:52:22 11:55:28 17° 270° (W) 11:58:28 437.575/2403.000
UKube-1 25 Apr 11:52:55 11:57:05 47° 288° (WNW) 12:01:14 .
QB50P1 25 Apr 12:04:24 12:07:45 22° 266° (W) 12:11:04 145.935-145.965
HO-68 25 Apr 12:06:59 12:10:44 15° 308° (NW) 12:14:07 435.675
SPROUT 25 Apr 12:08:26 12:11:05 16° 91° (E) 12:13:55 437.525
HUMSAT D 25 Apr 12:10:53 12:14:50 34° 289° (WNW) 12:18:42 437.325/437.525
ZACube-1 25 Apr 12:12:47 12:16:06 19° 294° (WNW) 12:19:16 437.345
VELOX 1 25 Apr 12:14:26 12:18:48 57° 287° (WNW) 12:23:09 145.980
Oscar 11 25 Apr 12:15:53 12:16:13 10° 298° (WNW) 12:16:18 145.826/435.025
CUBEBUG 1 25 Apr 12:21:00 12:25:22 83° 103° (ESE) 12:29:45 437.445
YUBILEINY 25 Apr 12:23:05 12:31:27 44° 288° (WNW) 12:39:45 435.215
RS-15 25 Apr 12:29:54 12:32:30 12° 97° (E) 12:36:14 29.354- 29.394
AISAT 25 Apr 12:32:22 12:36:29 36° 289° (WNW) 12:40:33 437.250
QB50P2 25 Apr 12:32:29 12:34:04 12° 272° (W) 12:35:24 145.880/145.840
AIST 2 25 Apr 12:32:50 12:37:02 57° 53° (NE) 12:41:09 435.215
SO-50 25 Apr 12:35:13 12:39:49 57° 308° (NW) 12:44:36 436.795
Oscar 19 25 Apr 12:36:46 12:41:04 28° 67° (ENE) 12:45:30 437.125/150
DX 1 25 Apr 12:46:49 12:49:07 14° 297° (WNW) 12:51:15 434.975-435.025
AIST 1 25 Apr 13:02:56 13:06:21 23° 271° (W) 13:09:42
ESTCUBE 1 25 Apr 13:10:07 13:13:57 28° 292° (WNW) 13:17:44 437.505/2401.250
ITAMSAT 1 25 Apr 13:11:28 13:15:02 20° 63° (ENE) 13:18:45 435.822/435.867
50 SAT 25 Apr 13:12:15 13:13:52 12° 296° (WNW) 13:15:17 437.505
BEESAT 3 25 Apr 13:13:35 13:15:59 15° 249° (WSW) 13:18:12 437.485
TISAT 1 25 Apr 13:14:05 13:18:19 67° 101° (ESE) 13:22:33 437.305
BEESAT 2 25 Apr 13:14:05 13:16:55 18° 248° (WSW) 13:19:36 435.950
Cosmos 2504 25 Apr 13:16:28 13:24:52 51° 90° (E) 13:33:16 435.465 / 435.565
ISS 25 Apr 13:25:34 13:28:40 38° 333° (NNW) 13:31:45 145.825
AO-7 25 Apr 13:25:39 13:27:56 12° 43° (NE) 13:30:42 29.400- 29.500
Gurwin Techsat 1B 25 Apr 13:38:03 13:42:31 29° 67° (ENE) 13:47:06 435.225
BEESAT 25 Apr 13:39:43 13:43:09 20° 92° (E) 13:46:43 436.000
SWISSCUBE 25 Apr 13:41:58 13:45:41 23° 93° (E) 13:49:30 437.505
SPROUT 25 Apr 13:43:19 13:47:27 45° 288° (WNW) 13:51:35 437.525
CUBEBUG 1 25 Apr 14:00:23 14:01:10 10° 298° (WNW) 14:01:41 437.445
AIST 2 25 Apr 14:12:50 14:15:12 14° 250° (WSW) 14:17:22 435.215
Oscar 19 25 Apr 14:15:35 14:20:19 36° 263° (W) 14:25:05 437.125/150
SO-50 25 Apr 14:19:36 14:21:30 12° 329° (NNW) 14:23:16 436.795
RS-15 25 Apr 14:32:15 14:42:51 64° 116° (ESE) 14:53:44 29.354- 29.394
ITUPSAT 1 25 Apr 14:45:27 14:50:15 90° 192° (SSW) 14:55:01 437.325
ITAMSAT 1 25 Apr 14:49:04 14:54:10 56° 259° (W) 14:59:16 435.822/435.867
TISAT 1 25 Apr 14:51:52 14:53:37 12° 297° (WNW) 14:55:11 437.305
GONETS M04 25 Apr 14:55:15 14:58:00 12° 75° (ENE) 15:01:28
JAS-2 25 Apr 14:57:44 15:04:30 35° 65° (ENE) 15:11:12 435.910
HORYU 2 25 Apr 14:59:49 15:03:48 33° 69° (ENE) 15:07:52 437.375
ISS 25 Apr 15:03:33 15:05:42 16° 353° (N) 15:07:50 145.825
Cosmos 2504 25 Apr 15:10:21 15:18:33 38° 290° (WNW) 15:26:31 435.465 / 435.565
AO-7 25 Apr 15:11:07 15:18:56 49° 64° (ENE) 15:26:50 29.400- 29.500
KKS-1 25 Apr 15:16:21 15:20:30 36° 97° (E) 15:24:40 437.445
BEESAT 25 Apr 15:16:43 15:21:15 43° 289° (WNW) 15:25:44 436.000
Gurwin Techsat 1B 25 Apr 15:17:29 15:22:24 37° 264° (W) 15:27:18 435.225
SWISSCUBE 25 Apr 15:19:17 15:23:42 38° 290° (WNW) 15:28:03 437.505
STARS 25 Apr 16:11:23 16:15:53 90° 286° (WNW) 16:20:20 437.465
VERMONT LUNAR 25 Apr 16:15:12 16:17:11 15° 151° (SSE) 16:19:15 437.305
ITUPSAT 1 25 Apr 16:26:03 16:27:30 11° 300° (WNW) 16:28:41 437.325
HORYU 2 25 Apr 16:36:49 16:40:31 24° 266° (W) 16:44:08 437.375
ISS 25 Apr 16:40:35 16:42:58 18° 13° (NNE) 16:45:21 145.825
JAS-2 25 Apr 16:41:32 16:49:15 56° 261° (W) 16:56:44 435.910
GONETS M04 25 Apr 16:44:43 16:53:21 69° 94° (E) 17:02:08
RS-15 25 Apr 16:45:34 16:55:52 43° 321° (NW) 17:06:23 29.354- 29.394
PCSat 25 Apr 16:50:20 16:55:09 32° 49° (NE) 17:00:00 145.827
KKS-1 25 Apr 16:53:26 16:56:58 22° 293° (WNW) 17:00:24 437.445
AO-7 25 Apr 17:04:18 17:11:56 39° 263° (W) 17:19:30 29.400- 29.500
MOZHAYETS 4 25 Apr 17:17:55 17:22:23 50° 99° (E) 17:26:50
CUSAT 1 25 Apr 17:35:58 17:39:30 80° 99° (E) 17:44:18 437.405
CUTE-I 25 Apr 17:37:27 17:42:16 37° 68° (ENE) 17:47:08 437.470
Cosmos 2499 25 Apr 17:39:55 17:47:01 29° 84° (E) 17:54:13 435.465 / 435.565
Cubesat XI-IV 25 Apr 17:46:47 17:51:48 45° 70° (ENE) 17:56:52 437.490
VERMONT LUNAR 25 Apr 17:50:58 17:54:13 46° 166° (SSE) 17:57:30 437.305
DANDE 25 Apr 18:14:49 18:18:04 48° 286° (WNW) 18:22:22 436.750
ISS 25 Apr 18:16:34 18:19:50 62° 33° (NNE) 18:23:03 145.825
PHONESAT 2.4 25 Apr 18:17:39 18:20:56 35° 160° (SSE) 18:24:15 2401.200-2431.200
M-CUBED/EXP-1 PRIME 25 Apr 18:26:21 18:28:58 17° 94° (E) 18:31:35 437.505
PCSat 25 Apr 18:33:37 18:38:41 41° 248° (WSW) 18:43:42 145.827
GONETS M04 25 Apr 18:43:49 18:51:07 27° 296° (WNW) 18:58:11
CUBESAT XI-V 25 Apr 18:54:02 18:58:22 40° 97° (E) 19:02:43 437.345
MOZHAYETS 4 25 Apr 18:56:10 18:59:16 18° 295° (WNW) 19:02:13
STRAND 1 25 Apr 18:57:54 19:01:42 21° 92° (E) 19:05:38 437.568
HO-68 25 Apr 19:00:46 19:05:27 20° 56° (NE) 19:10:24 435.675
RS-15 25 Apr 19:04:03 19:12:18 23° 354° (N) 19:20:44 29.354- 29.394
AUBIESAT-1 25 Apr 19:07:54 19:11:53 42° 102° (ESE) 19:15:32 437.475
GOMX 1 25 Apr 19:13:20 19:14:13 11° 61° (ENE) 19:15:19 467.674
CUTE-I 25 Apr 19:17:47 19:22:25 29° 265° (W) 19:26:59 437.470
BRITE-PL 25 Apr 19:23:00 19:26:03 21° 67° (ENE) 19:29:17 437.365/2234.400
SO-50 25 Apr 19:26:21 19:30:17 23° 41° (NE) 19:34:17 436.795
Cubesat XI-IV 25 Apr 19:27:51 19:32:09 24° 267° (W) 19:36:20 437.490
VERMONT LUNAR 25 Apr 19:28:11 19:31:34 69° 183° (S) 19:34:57 437.305
PRISM 25 Apr 19:29:31 19:33:33 56° 101° (E) 19:37:34 437.425
Cosmos 2499 25 Apr 19:30:51 19:39:41 64° 282° (WNW) 19:48:16 435.465 / 435.565
COMPASS 1 25 Apr 19:44:17 19:45:38 12° 63° (ENE) 19:47:10 437.405
DOVE 4 25 Apr 19:48:10 19:50:55 17° 65° (ENE) 19:53:53 437.250
ISS 25 Apr 19:53:49 19:55:53 15° 228° (SW) 19:57:52 145.825
PHONESAT 2.4 25 Apr 19:55:23 19:58:58 69° 177° (S) 20:02:33 2401.200-2431.200
M-CUBED/EXP-1 PRIME 25 Apr 20:00:08 20:04:10 41° 294° (WNW) 20:07:50 437.505
SEEDS 25 Apr 20:07:21 20:10:48 25° 69° (ENE) 20:14:20 437.485
CANX-2 25 Apr 20:15:04 20:19:04 39° 72° (ENE) 20:23:07 2200.000
CUTE 1.7 + AOD 2 25 Apr 20:24:07 20:28:12 44° 73° (ENE) 20:32:20 437.475
AAUSAT CUBESAT 2 25 Apr 20:24:32 20:28:02 26° 69° (ENE) 20:31:37 437.432
CINEMA 3 25 Apr 20:31:55 20:35:28 25° 67° (ENE) 20:39:13 145.822/145.860
CUBESAT XI-V 25 Apr 20:32:05 20:35:36 21° 293° (WNW) 20:39:00 437.345
CUBEBUG 2 25 Apr 20:32:48 20:35:06 14° 63° (ENE) 20:37:37 437.445
STRAND 1 25 Apr 20:36:18 20:41:11 46° 289° (WNW) 20:46:01 437.568
YUBILEINY 25 Apr 20:36:39 20:42:42 21° 60° (ENE) 20:49:06 435.215
AUBIESAT-1 25 Apr 20:43:30 20:46:19 17° 301° (WNW) 20:48:54 437.475
HO-68 25 Apr 20:45:09 20:52:22 89° 253° (WSW) 20:59:38 435.675
GOMX 1 25 Apr 20:47:33 20:51:44 75° 258° (WSW) 20:56:09 467.674
UWE-3 25 Apr 20:57:55 21:01:10 21° 67° (ENE) 21:04:36 435.000/436.395/437.385
BRITE-PL 25 Apr 21:00:40 21:04:27 33° 265° (W) 21:08:18 437.365/2234.400
VERMONT LUNAR 25 Apr 21:05:42 21:08:52 36° 199° (SSW) 21:12:00 437.305
SO-50 25 Apr 21:06:20 21:11:14 58° 241° (WSW) 21:16:02 436.795
PRISM 25 Apr 21:06:35 21:08:36 13° 296° (WNW) 21:10:27 437.425
FUNcube-1 25 Apr 21:07:34 21:10:46 21° 67° (ENE) 21:14:09 145.935
UKube-1 25 Apr 21:13:56 21:16:23 15° 64° (ENE) 21:19:00 .
COMPASS 1 25 Apr 21:16:34 21:20:48 70° 259° (W) 21:25:03 437.405
RS-15 25 Apr 21:19:56 21:29:35 31° 28° (NNE) 21:39:47 29.354- 29.394
DOVE 4 25 Apr 21:24:16 21:28:20 45° 262° (W) 21:32:37 437.250
HUMSAT D 25 Apr 21:28:36 21:31:18 17° 66° (ENE) 21:34:10 437.325/437.525
Cosmos 2499 25 Apr 21:30:38 21:34:54 13° 305° (NW) 21:38:31 435.465 / 435.565
Oscar 11 25 Apr 21:31:07 21:35:26 68° 75° (ENE) 21:39:48 145.826/435.025
ZACube-1 25 Apr 21:32:02 21:36:02 37° 71° (ENE) 21:40:11 437.345
PHONESAT 2.4 25 Apr 21:33:35 21:37:06 52° 193° (SSW) 21:40:35 2401.200-2431.200
DELFI C3 25 Apr 21:34:40 21:38:39 54° 74° (ENE) 21:42:39 145.870
VELOX 1 25 Apr 21:38:21 21:40:31 14° 63° (ENE) 21:42:52 145.980
SEEDS 25 Apr 21:42:44 21:46:31 29° 265° (W) 21:50:16 437.485
CANX-2 25 Apr 21:52:05 21:55:12 19° 269° (W) 21:58:11 2200.000
AISAT 25 Apr 21:55:00 21:58:16 21° 67° (ENE) 22:01:38 437.250
AAUSAT CUBESAT 2 25 Apr 21:59:59 22:03:36 27° 266° (W) 22:07:12 437.432
CUTE 1.7 + AOD 2 25 Apr 22:01:35 22:04:23 16° 270° (W) 22:07:04 437.475
DX 1 25 Apr 22:04:52 22:09:05 55° 73° (ENE) 22:13:20 434.975-435.025
CUBEBUG 2 25 Apr 22:07:00 22:11:18 60° 260° (W) 22:15:48 437.445
CINEMA 3 25 Apr 22:08:43 22:12:34 30° 265° (W) 22:16:33 145.822/145.860
50 SAT 25 Apr 22:21:12 22:24:53 37° 72° (ENE) 22:28:38 437.505
Cosmos 2491 25 Apr 22:22:01 22:30:01 44° 88° (E) 22:38:11 435.465 / 435.565
YUBILEINY 25 Apr 22:32:05 22:40:54 86° 262° (W) 22:49:37 435.215
UWE-3 25 Apr 22:33:24 22:37:28 38° 263° (W) 22:41:39 435.000/436.395/437.385
ESTCUBE 1 25 Apr 22:33:27 22:37:16 28° 69° (ENE) 22:41:10 437.505/2401.250
HO-68 25 Apr 22:36:56 22:41:12 16° 273° (W) 22:45:03 435.675
O/OREOS (USA 219) 25 Apr 22:37:01 22:41:36 80° 110° (ESE) 22:46:11 437.305
FUNcube-1 25 Apr 22:42:50 22:46:53 37° 263° (W) 22:51:02 145.935
VERMONT LUNAR 25 Apr 22:45:15 22:45:47 10° 213° (SSW) 22:46:13 437.305
UKube-1 25 Apr 22:47:56 22:52:09 52° 260° (W) 22:56:24 .
TIGRISAT 25 Apr 22:56:01 23:00:14 32° 95° (E) 23:04:25 435.000
NANOSAT C BR1 25 Apr 22:57:52 23:00:19 15° 90° (E) 23:02:56 145.865
UNISAT 6 25 Apr 23:00:16 23:04:36 36° 96° (E) 23:08:55 437.425
POPSAT HIP 1 25 Apr 23:00:53 23:03:35 17° 91° (E) 23:06:26 437.405
HUMSAT D 25 Apr 23:02:41 23:06:44 44° 262° (W) 23:10:52 437.325/437.525
SPROUT 25 Apr 23:03:55 23:06:06 14° 64° (ENE) 23:08:27 437.525
ZACube-1 25 Apr 23:09:17 23:12:35 20° 269° (W) 23:15:49 437.345
Cosmos 2504 25 Apr 23:10:41 23:15:27 17° 58° (ENE) 23:20:25 435.465 / 435.565
Oscar 11 25 Apr 23:10:52 23:12:11 11° 273° (W) 23:13:14 145.826/435.025
VELOX 1 25 Apr 23:12:17 23:16:38 61° 259° (W) 23:21:01 145.980
PHONESAT 2.4 25 Apr 23:12:22 23:14:55 18° 209° (SSW) 23:17:24 2401.200-2431.200
DELFI C3 25 Apr 23:12:26 23:14:12 12° 271° (W) 23:15:45 145.870
CUBEBUG 1 25 Apr 23:17:23 23:21:41 72° 75° (ENE) 23:26:01 437.445
BUGSAT 1 25 Apr 23:24:46 23:27:51 20° 93° (E) 23:31:04 437.445
POLYITAN 1 25 Apr 23:29:45 23:33:42 35° 97° (E) 23:37:41 437.675
AISAT 25 Apr 23:30:34 23:34:40 37° 263° (W) 23:38:45 437.250
DUCHIFAT 1 25 Apr 23:30:40 23:34:35 34° 97° (E) 23:38:30 145.980
RS-15 25 Apr 23:32:34 23:44:09 80° 55° (NE) 23:56:16 29.354- 29.394
ANTELSAT 25 Apr 23:42:05 23:46:51 83° 284° (WNW) 23:51:30 437.575/2403.000
DX 1 25 Apr 23:43:31 23:45:46 13° 270° (W) 23:47:47 434.975-435.025
QB50P1 25 Apr 23:48:01 23:52:15 55° 100° (E) 23:56:28 145.935-145.965
AIST 1 25 Apr 23:56:09 23:58:49 17° 88° (E) 00:01:36
50 SAT 25 Apr 23:57:09 23:59:53 17° 269° (W) 00:02:30 437.505
TISAT 1 26 Apr 00:06:35 00:10:38 51° 73° (ENE) 00:14:44 437.305
ESTCUBE 1 26 Apr 00:10:12 00:14:07 28° 265° (W) 00:17:59 437.505/2401.250
QB50P2 26 Apr 00:14:08 00:18:27 74° 285° (WNW) 00:22:44 145.880/145.840
ITUPSAT 1 26 Apr 00:17:51 00:19:59 13° 62° (ENE) 00:22:22 437.325
Cosmos 2491 26 Apr 00:18:47 00:26:58 42° 289° (WNW) 00:35:08 435.465 / 435.565
O/OREOS (USA 219) 26 Apr 00:19:30 00:21:43 13° 311° (NW) 00:23:43 437.305
YUBILEINY 26 Apr 00:31:17 00:36:33 17° 282° (WNW) 00:41:17 435.215
NANOSAT C BR1 26 Apr 00:32:20 00:36:29 47° 287° (WNW) 00:40:35 145.865
TIGRISAT 26 Apr 00:32:52 00:36:53 27° 292° (WNW) 00:40:47 435.000
POPSAT HIP 1 26 Apr 00:35:38 00:39:44 44° 288° (WNW) 00:43:49 437.405
UNISAT 6 26 Apr 00:37:23 00:41:13 24° 293° (WNW) 00:44:55 437.425
SPROUT 26 Apr 00:37:35 00:41:46 56° 260° (W) 00:46:00 437.525
BEESAT 26 Apr 00:46:38 00:50:28 25° 67° (ENE) 00:54:24 436.000
SWISSCUBE 26 Apr 00:48:57 00:52:59 29° 68° (ENE) 00:57:07 437.505
BUGSAT 1 26 Apr 00:59:41 01:03:26 33° 289° (WNW) 01:07:11 437.445
Cosmos 2504 26 Apr 01:02:17 01:10:26 87° 83° (E) 01:17:56 435.465 / 435.565
POLYITAN 1 26 Apr 01:06:06 01:09:26 22° 293° (WNW) 01:12:42 437.675
DUCHIFAT 1 26 Apr 01:06:54 01:10:14 22° 292° (WNW) 01:13:28 145.980
QB50P1 26 Apr 01:25:18 01:27:43 15° 295° (WNW) 01:29:59 145.935-145.965
AIST 1 26 Apr 01:32:07 01:36:11 40° 283° (WNW) 01:40:14
TISAT 1 26 Apr 01:44:39 01:46:49 13° 271° (W) 01:48:47 437.305
RS-15 26 Apr 01:46:07 01:55:42 29° 255° (WSW) 02:05:06 29.354- 29.394
ITUPSAT 1 26 Apr 01:52:32 01:57:20 76° 257° (WSW) 02:02:10 437.325
Gurwin Techsat 1B 26 Apr 01:57:02 01:57:07 10° 85° (E) 01:57:38 435.225
KKS-1 26 Apr 02:14:59 02:18:59 35° 70° (ENE) 02:23:04 437.445
BEESAT 26 Apr 02:23:45 02:28:10 36° 263° (W) 02:32:35 436.000
Oscar 19 26 Apr 02:26:07 02:31:22 77° 104° (ESE) 02:36:34 437.125/150
SWISSCUBE 26 Apr 02:26:31 02:30:48 31° 264° (W) 02:35:02 437.505
CUSAT 1 26 Apr 02:29:29 02:33:41 16° 60° (ENE) 02:38:34 437.405
AIST 2 26 Apr 02:34:16 02:35:18 11° 109° (ESE) 02:36:33 435.215
GONETS M04 26 Apr 02:54:49 03:02:40 35° 69° (ENE) 03:10:37
Cosmos 2504 26 Apr 02:57:52 03:02:42 17° 282° (WNW) 03:06:58 435.465 / 435.565
ITAMSAT 1 26 Apr 03:01:25 03:06:27 50° 99° (E) 03:11:29 435.822/435.867
BEESAT 3 26 Apr 03:05:05 03:09:10 89° 128° (SE) 03:13:20 437.485
BEESAT 2 26 Apr 03:06:48 03:10:55 78° 122° (ESE) 03:15:05 435.950
STARS 26 Apr 03:08:31 03:12:54 83° 74° (ENE) 03:17:20 437.465
DANDE 26 Apr 03:09:23 03:15:06 24° 66° (ENE) 03:21:44 436.750
AO-7 26 Apr 03:15:00 03:18:04 13° 84° (E) 03:21:50 29.400- 29.500
Gurwin Techsat 1B 26 Apr 03:32:41 03:38:02 86° 103° (ESE) 03:43:22 435.225
KKS-1 26 Apr 03:52:15 03:55:45 22° 267° (W) 03:59:10 437.445
JAS-2 26 Apr 03:53:08 03:57:42 22° 88° (E) 04:02:05 435.910
Oscar 19 26 Apr 04:07:11 04:10:08 15° 299° (WNW) 04:12:51 437.125/150
AIST 2 26 Apr 04:09:05 04:13:20 76° 304° (NW) 04:17:39 435.215
CUSAT 1 26 Apr 04:10:04 04:17:39 72° 78° (ENE) 04:26:01 437.405
MOZHAYETS 4 26 Apr 04:20:03 04:24:31 49° 72° (ENE) 04:29:01
HORYU 2 26 Apr 04:26:39 04:31:09 62° 101° (E) 04:35:35 437.375
ITAMSAT 1 26 Apr 04:41:44 04:45:39 22° 296° (WNW) 04:49:27 435.822/435.867
BEESAT 3 26 Apr 04:45:46 04:47:50 13° 322° (NW) 04:49:47 437.485
BEESAT 2 26 Apr 04:47:10 04:49:36 15° 321° (NW) 04:51:55 435.950
GONETS M04 26 Apr 04:51:23 04:59:56 54° 269° (W) 05:08:20
DANDE 26 Apr 04:51:30 04:58:59 79° 262° (W) 05:07:33 436.750
AO-7 26 Apr 05:04:14 05:12:34 72° 105° (ESE) 05:20:54 29.400- 29.500
M-CUBED/EXP-1 PRIME 26 Apr 05:13:36 05:17:45 30° 63° (ENE) 05:21:58 437.505
Gurwin Techsat 1B 26 Apr 05:14:40 05:17:23 14° 300° (WNW) 05:19:50 435.225
Cosmos 2499 26 Apr 05:22:42 05:30:12 48° 74° (ENE) 05:37:13 435.465 / 435.565
JAS-2 26 Apr 05:37:10 05:43:27 56° 290° (WNW) 05:48:57 435.910
AIST 2 26 Apr 05:50:53 05:52:44 12° 324° (NW) 05:54:27 435.215
CUSAT 1 26 Apr 05:53:47 06:00:01 26° 272° (W) 06:06:22 437.405
AUBIESAT-1 26 Apr 05:54:55 05:59:40 66° 69° (ENE) 06:04:25 437.475
CUTE-I 26 Apr 05:55:38 05:58:02 13° 88° (E) 06:00:43 437.470
CUBESAT XI-V 26 Apr 05:57:47 06:02:06 41° 72° (ENE) 06:06:28 437.345
MOZHAYETS 4 26 Apr 05:58:57 06:02:04 17° 270° (W) 06:05:01
Cubesat XI-IV 26 Apr 06:04:42 06:07:58 17° 90° (E) 06:11:28 437.490
HORYU 2 26 Apr 06:04:52 06:07:20 14° 297° (WNW) 06:09:37 437.375
STRAND 1 26 Apr 06:14:00 06:18:30 33° 68° (ENE) 06:23:04 437.568
PRISM 26 Apr 06:19:58 06:23:55 43° 72° (ENE) 06:27:53 437.425
